VLG9LM LEBL-LFMN

Flight info

Callsign VLG9LM
Flight time 0h 55m
Altitude 30000
Route DALIN DCT PIVUS DCT DIBER DCT SOSUR DCT SOFFY DCT MRM DCT ABLAK
Aircraft A21N/M-SDE2E3FGHIRWXY/LB1

Departure

Time 2026-05-04 17:05
Airport Josep Tarradellas Barcelona-El Prat Airport (LEBL)

Arrival

Time 2026-05-04 18:01
Airport Nice-Côte d'Azur Airport (LFMN)
Time Latitude Longitude Altitude Speed Heading
2026-05-04 16:36 41.29056 2.07094 23 ft 0 kts 155°
2026-05-04 16:51 41.29061 2.07091 23 ft 3 kts 153°
2026-05-04 16:51 41.29091 2.07058 25 ft 3 kts 117°
2026-05-04 16:52 41.29097 2.07007 24 ft 3 kts 75°
2026-05-04 16:52 41.29092 2.06988 22 ft 0 kts 65°
2026-05-04 16:56 41.29194 2.07109 20 ft 10 kts 41°
2026-05-04 16:57 41.29229 2.07197 21 ft 12 kts 66°
2026-05-04 16:57 41.29322 2.07478 19 ft 21 kts 65°
2026-05-04 16:58 41.29522 2.08084 18 ft 26 kts 66°
2026-05-04 16:58 41.29557 2.08227 19 ft 12 kts 101°
2026-05-04 16:59 41.29441 2.08332 22 ft 14 kts 155°
2026-05-04 17:00 41.29006 2.08596 23 ft 18 kts 156°
2026-05-04 17:00 41.28904 2.08851 20 ft 11 kts 66°
2026-05-04 17:01 41.28982 2.09082 21 ft 16 kts 66°
2026-05-04 17:01 41.29083 2.09380 20 ft 20 kts 66°
2026-05-04 17:02 41.29206 2.09735 20 ft 23 kts 65°
2026-05-04 17:02 41.29276 2.10007 21 ft 11 kts 106°
2026-05-04 17:03 41.29262 2.10061 20 ft 0 kts 109°
2026-05-04 17:03 41.29244 2.10126 19 ft 13 kts 109°
2026-05-04 17:04 41.29245 2.10313 18 ft 2 kts 148°
2026-05-04 17:04 41.29212 2.10284 19 ft 5 kts 245°
2026-05-04 17:05 41.28782 2.09030 29 ft 152 kts 245°
2026-05-04 17:05 41.27623 2.06740 1711 ft 153 kts 199°
2026-05-04 17:06 41.25165 2.06601 2934 ft 198 kts 182°
2026-05-04 17:06 41.23770 2.06540 3916 ft 203 kts 185°
2026-05-04 17:07 41.20892 2.06202 5997 ft 214 kts 189°
2026-05-04 17:07 41.19886 2.06047 6730 ft 216 kts 190°
2026-05-04 17:07 41.17906 2.05737 8288 ft 216 kts 189°
2026-05-04 17:07 41.16375 2.05611 9327 ft 227 kts 187°
2026-05-04 17:08 41.14760 2.05528 10284 ft 237 kts 186°
2026-05-04 17:08 41.11400 2.05379 12486 ft 245 kts 186°
2026-05-04 17:08 41.09677 2.05302 13599 ft 250 kts 186°
2026-05-04 17:09 41.07927 2.05222 14336 ft 253 kts 187°
2026-05-04 17:09 41.06154 2.05141 14819 ft 256 kts 187°
2026-05-04 17:09 41.04365 2.05056 15335 ft 260 kts 187°
2026-05-04 17:10 41.00720 2.05667 17219 ft 281 kts 161°
2026-05-04 17:10 40.97265 2.12862 18856 ft 363 kts 114°
2026-05-04 17:11 40.96448 2.16172 18894 ft 394 kts 112°
2026-05-04 17:11 40.95718 2.19762 18891 ft 413 kts 105°
2026-05-04 17:11 40.95874 2.27448 18897 ft 426 kts 77°
2026-05-04 17:12 40.96946 2.31115 18976 ft 433 kts 62°
2026-05-04 17:12 41.00750 2.37353 20493 ft 439 kts 44°
2026-05-04 17:13 41.07336 2.46081 22605 ft 455 kts 44°
2026-05-04 17:14 41.14142 2.55172 24429 ft 470 kts 44°
2026-05-04 17:14 41.16455 2.58275 24990 ft 474 kts 44°
2026-05-04 17:14 41.21125 2.64554 26041 ft 481 kts 44°
2026-05-04 17:15 41.23488 2.67737 26529 ft 485 kts 44°
2026-05-04 17:15 41.27855 2.74646 27516 ft 493 kts 54°
2026-05-04 17:16 41.31729 2.82174 28462 ft 500 kts 57°
2026-05-04 17:16 41.37462 2.93937 29803 ft 509 kts 58°
2026-05-04 17:17 41.39387 2.97903 29919 ft 509 kts 58°
2026-05-04 17:18 41.47092 3.13727 29910 ft 512 kts 58°
2026-05-04 17:19 41.54841 3.29685 29911 ft 510 kts 58°
2026-05-04 17:20 41.62523 3.45595 29909 ft 509 kts 58°
2026-05-04 17:20 41.68264 3.57539 29913 ft 508 kts 58°
2026-05-04 17:21 41.75893 3.73484 29909 ft 507 kts 58°
2026-05-04 17:22 41.79665 3.81399 29877 ft 506 kts 58°
2026-05-04 17:23 41.87251 3.97383 29911 ft 509 kts 58°
2026-05-04 17:24 41.92940 4.09423 29912 ft 508 kts 59°
2026-05-04 17:25 42.00456 4.25403 29915 ft 504 kts 59°
2026-05-04 17:26 42.08158 4.41164 29920 ft 505 kts 49°
2026-05-04 17:27 42.20137 4.56215 29923 ft 505 kts 41°
2026-05-04 17:28 42.30609 4.68826 29933 ft 504 kts 41°
2026-05-04 17:29 42.46245 4.87763 29948 ft 503 kts 41°
2026-05-04 17:31 42.60319 5.01346 29953 ft 497 kts 17°
2026-05-04 17:32 42.76861 5.08037 29958 ft 495 kts 13°
2026-05-04 17:33 42.90114 5.13264 29959 ft 496 kts 13°
2026-05-04 17:34 43.03306 5.18553 29970 ft 496 kts 14°
2026-05-04 17:35 43.13223 5.22590 29653 ft 496 kts 14°
2026-05-04 17:35 43.19852 5.25300 29089 ft 497 kts 14°
2026-05-04 17:35 43.23152 5.26652 28314 ft 491 kts 14°
2026-05-04 17:36 43.26407 5.27988 27587 ft 483 kts 14°
2026-05-04 17:36 43.29603 5.29300 26825 ft 478 kts 14°
2026-05-04 17:36 43.32777 5.30603 26081 ft 473 kts 14°
2026-05-04 17:36 43.35905 5.31930 25297 ft 469 kts 18°
2026-05-04 17:37 43.38833 5.33881 24533 ft 466 kts 29°
2026-05-04 17:37 43.41596 5.36195 23763 ft 463 kts 31°
2026-05-04 17:37 43.44300 5.38580 22909 ft 459 kts 32°
2026-05-04 17:37 43.46958 5.40967 22107 ft 453 kts 33°
2026-05-04 17:38 43.49347 5.43705 21526 ft 442 kts 49°
2026-05-04 17:38 43.51037 5.47177 21157 ft 434 kts 65°
2026-05-04 17:38 43.52217 5.50943 20724 ft 432 kts 70°
2026-05-04 17:38 43.53293 5.54797 20289 ft 430 kts 71°
2026-05-04 17:39 43.55403 5.62449 19416 ft 424 kts 71°
2026-05-04 17:39 43.56415 5.66258 18996 ft 420 kts 76°
2026-05-04 17:39 43.56976 5.70161 18584 ft 412 kts 86°
2026-05-04 17:40 43.57274 5.74076 18122 ft 409 kts 88°
2026-05-04 17:40 43.57522 5.77969 17684 ft 407 kts 88°
2026-05-04 17:40 43.57767 5.81850 17267 ft 404 kts 88°
2026-05-04 17:40 43.58012 5.85686 16866 ft 402 kts 88°
2026-05-04 17:41 43.58260 5.89527 16453 ft 399 kts 88°
2026-05-04 17:41 43.58506 5.93331 16044 ft 397 kts 88°
2026-05-04 17:41 43.58752 5.97117 15642 ft 395 kts 88°
2026-05-04 17:41 43.58995 6.00888 15235 ft 393 kts 88°
2026-05-04 17:42 43.59237 6.04634 14840 ft 391 kts 88°
2026-05-04 17:42 43.59415 6.08350 14434 ft 387 kts 94°
2026-05-04 17:42 43.59029 6.11977 14055 ft 378 kts 109°
2026-05-04 17:42 43.58190 6.15394 13652 ft 374 kts 113°
2026-05-04 17:43 43.57272 6.18712 13257 ft 371 kts 114°
2026-05-04 17:43 43.56341 6.22032 12874 ft 368 kts 114°
2026-05-04 17:43 43.55425 6.25308 12506 ft 365 kts 114°
2026-05-04 17:43 43.54530 6.28526 12242 ft 350 kts 114°
2026-05-04 17:44 43.53684 6.31588 11973 ft 333 kts 114°
2026-05-04 17:44 43.52875 6.34510 11640 ft 320 kts 114°
2026-05-04 17:44 43.52096 6.37322 11302 ft 309 kts 114°
2026-05-04 17:44 43.51339 6.40049 10975 ft 299 kts 114°
2026-05-04 17:45 43.50550 6.42660 10662 ft 291 kts 121°
2026-05-04 17:45 43.49400 6.44895 10242 ft 284 kts 134°
2026-05-04 17:45 43.48447 6.46331 10015 ft 282 kts 136°
2026-05-04 17:49 43.48284 6.46568 9969 ft 282 kts 136°
2026-05-04 17:49 43.46925 6.48511 9663 ft 280 kts 137°
2026-05-04 17:50 43.45579 6.50425 9379 ft 276 kts 136°
2026-05-04 17:50 43.44263 6.52304 9097 ft 275 kts 136°
2026-05-04 17:50 43.42938 6.54201 8821 ft 276 kts 136°
2026-05-04 17:50 43.41613 6.56102 8540 ft 273 kts 136°
2026-05-04 17:51 43.40318 6.58004 8236 ft 273 kts 132°
2026-05-04 17:51 43.39344 6.60238 7964 ft 275 kts 111°
2026-05-04 17:51 43.39114 6.62848 7680 ft 279 kts 86°
2026-05-04 17:51 43.39565 6.65411 7480 ft 271 kts 75°
2026-05-04 17:52 43.40162 6.67809 7241 ft 261 kts 73°
2026-05-04 17:52 43.40757 6.70115 6980 ft 252 kts 73°
2026-05-04 17:52 43.41330 6.72363 6704 ft 245 kts 75°
2026-05-04 17:52 43.41878 6.74544 6448 ft 237 kts 75°
2026-05-04 17:53 43.42404 6.76663 6179 ft 231 kts 75°
2026-05-04 17:53 43.42916 6.78738 5957 ft 229 kts 75°
2026-05-04 17:53 43.43421 6.80806 5710 ft 226 kts 74°
2026-05-04 17:53 43.43916 6.82829 5464 ft 221 kts 74°
2026-05-04 17:54 43.44397 6.84795 5251 ft 219 kts 73°
2026-05-04 17:54 43.44882 6.86771 5027 ft 216 kts 74°
2026-05-04 17:54 43.45355 6.88718 4792 ft 214 kts 72°
2026-05-04 17:54 43.45828 6.90659 4530 ft 215 kts 73°
2026-05-04 17:55 43.46303 6.92604 4297 ft 214 kts 73°
2026-05-04 17:55 43.46811 6.94511 4076 ft 211 kts 66°
2026-05-04 17:55 43.47603 6.96213 3998 ft 212 kts 53°
2026-05-04 17:55 43.48625 6.97714 3998 ft 216 kts 49°
2026-05-04 17:56 43.49697 6.99164 3996 ft 215 kts 48°
2026-05-04 17:56 43.50761 7.00606 3986 ft 215 kts 48°
2026-05-04 17:56 43.51833 7.02055 3819 ft 216 kts 47°
2026-05-04 17:56 43.52895 7.03509 3511 ft 215 kts 48°
2026-05-04 17:57 43.53951 7.04963 3171 ft 213 kts 48°
2026-05-04 17:57 43.54990 7.06389 2868 ft 210 kts 48°
2026-05-04 17:57 43.56022 7.07805 2587 ft 208 kts 49°
2026-05-04 17:57 43.57031 7.09189 2329 ft 201 kts 49°
2026-05-04 17:58 43.58000 7.10521 2055 ft 193 kts 48°
2026-05-04 17:58 43.58938 7.11809 1800 ft 186 kts 49°
2026-05-04 17:58 43.59819 7.13017 1540 ft 170 kts 49°
2026-05-04 17:58 43.60609 7.14100 1326 ft 150 kts 49°
2026-05-04 17:59 43.61298 7.15045 1119 ft 129 kts 51°
2026-05-04 17:59 43.61891 7.15862 955 ft 114 kts 53°
2026-05-04 17:59 43.62974 7.17359 673 ft 110 kts 52°
2026-05-04 18:00 43.63516 7.18107 525 ft 110 kts 51°
2026-05-04 18:00 43.64052 7.18843 382 ft 108 kts 50°
2026-05-04 18:00 43.64583 7.19577 219 ft 108 kts 50°
2026-05-04 18:00 43.65108 7.20297 72 ft 104 kts 51°
2026-05-04 18:01 43.65587 7.20968 29 ft 81 kts 43°
2026-05-04 18:01 43.65860 7.21340 28 ft 34 kts 44°
2026-05-04 18:01 43.66019 7.21556 25 ft 31 kts 46°
2026-05-04 18:02 43.66232 7.21725 26 ft 6 kts 323°
2026-05-04 18:02 43.66269 7.21679 24 ft 8 kts 317°
2026-05-04 18:02 43.66287 7.21636 27 ft 2 kts 265°
2026-05-04 18:02 43.66276 7.21604 26 ft 6 kts 245°
2026-05-04 18:03 43.66228 7.21527 26 ft 15 kts 226°
2026-05-04 18:03 43.66132 7.21390 27 ft 24 kts 224°
2026-05-04 18:03 43.65997 7.21209 25 ft 26 kts 225°
2026-05-04 18:03 43.65858 7.21017 27 ft 25 kts 226°
2026-05-04 18:04 43.65797 7.20871 25 ft 10 kts 290°
2026-05-04 18:04 43.65833 7.20839 28 ft 6 kts 341°
2026-05-04 18:04 43.65843 7.20763 25 ft 7 kts 237°
2026-05-04 18:05 43.65807 7.20699 28 ft 9 kts 225°
2026-05-04 18:05 43.65762 7.20628 24 ft 7 kts 247°
2026-05-04 18:05 43.65770 7.20594 27 ft 6 kts 297°
2026-05-04 18:05 43.65795 7.20556 25 ft 6 kts 315°
2026-05-04 18:06 43.65813 7.20533 24 ft 0 kts 316°